SL-8 R/B

Satellite information

Favourite Embed

Satellite Type and Status

ROCKET BODYIN ORBIT

Key statistics

Satellite SL-8 R/B at a glance.

Uptime

8320

Days in orbit

Revolutions

≈ 13.7

Per day

Orbit

LEO

Low Earth Orbit

Inclination

82.9

Latest

Satellite identification and parameters

Extended collection of information and parameters for SL-8 R/B.

Object identification

Identified? True

Debris? False

Object name: SL-8 R/B

International designator: 2002-046B

Object number (NORAD): 27535

Object ID (CCSDS): 27535

Country: COMMONWEALTH OF INDEPENDENT STATES (CIS)

Current information (Y/N): Y

RCS size: LARGE

Orbital parameters

Period: 104.754 minutes

Inclination: 82.931 deg

SMA: 7361.067 km

Apoapsis: 1010.564 km

Periapsis: 955.3 km

RAAN: 206.5403 deg

Eccentricy: 0.0037538

Argument of periapsis: 145.4197 deg

Mean anomaly: 328.3988 deg

Mean motion: 13.74648394 rev/day

Mean motion (dot): 0.00000083 rev/day2

B* drag term: 0.00007108 1/REarth

Two-line elements (TLE)

Creation date: July 6, 2025, 6:05 p.m.

Reference frame: TEME

Reference center: EARTH

Epoch: July 6, 2025, 2 p.m. UTC

TLE line 0: 0 SL-8 R/B

TLE line 1: 1 27535U 02046B 25187.58342425 .00000083 00000-0 71080-4 0 9991

TLE line 2: 2 27535 82.9310 206.5403 0037538 145.4197 328.3988 13.74648394142371

Live tracking on map

Real-time ground track for satellite SL-8 R/B.

In-orbit conjunctions

A list of the most updated potential collisions computed for object SL-8 R/B.

Target Orbit TCA Probability of collision Miss distance Type
CZ-6A DEB SSO 2025-06-29 03:45:53 0.002829527 62.0 (m) DEBRIS
FENGYUN 1C DEB SSO 2025-04-27 22:56:47 0.0001123778 241.0 (m) DEBRIS

Associated space launch

Nadezhda 7, also called Nadezhda -M, was a Russian navigational satellite. It was to participate in the international search and rescue (SAR) network known as COSPAS-SARSAT, for ships at sea.

SL-8 R/B was lifted into orbit during the mission ‘Kosmos-3M | Nadezhda-M’, on board a Kosmos-3M space rocket.

The launch took place on Sept. 26, 2002, 2:27 p.m. from 132/1 (132L).

For more information about the launch, click the button.

Launch to space Kosmos-3M | Nadezhda-M
Kosmos-3M | Nadezhda-M

Agency: N/A

Status: Launch Successful

Launch date: Sept. 26, 2002, 2:27 p.m. UTC

Rocket: Kosmos-3M

Launch pad: 132/1 (132L)

Location: Plesetsk Cosmodrome, Russian Federation

...

Latest news about this satellite

There are no fresh news available about this satellite. Check back as we update our databases every day.


Newsletter sign-up

Weekly statistics, charts and insights to help you stay on top of the space industry.